Simultaneous Nadir Overpasses (SNOs) Predictions

Prediction of SNOs between NOAA-19 and TERRA Satellite Orbit:

Table of predicted SNOs for the next 14.0 days since TLE Epoch: 2/17/2024
Index Date (NOAA-19) Time (NOAA-19) Lat,Lon (NOAA-19) SZA (NOAA-19 ) Date (TERRA) Time (TERRA) Lat,Lon (TERRA) SZA (TERRA ) Distance(km) Time Diff (sec)
1 02/17/2024 14:02:51 80.26, -7.11 92.82 02/17/2024 14:03:18 80.25, -7.20 92.81 1.89 27
2 02/17/2024 14:53:48 -80.31, 160.89 87.11 02/17/2024 14:52:39 -80.31, 160.93 87.13 0.79 69
3 02/19/2024 17:53:00 -80.27, 115.50 87.93 02/19/2024 17:52:52 -80.27, 115.52 87.93 0.58 8
4 02/21/2024 20:52:12 -80.22, 70.05 88.77 02/21/2024 20:53:05 -80.22, 69.98 88.77 1.35 53
5 02/21/2024 21:43:09 80.29,-121.69 91.34 02/21/2024 21:42:23 80.29,-121.68 91.34 0.82 46
6 02/24/2024 00:42:22 80.22,-167.36 90.46 02/24/2024 00:42:36 80.22,-167.38 90.46 0.54 14
7 02/26/2024 03:41:35 80.15, 146.92 89.56 02/26/2024 03:42:48 80.17, 147.07 89.60 3.18 73
8 02/26/2024 04:32:29 -80.23, -44.78 90.33 02/26/2024 04:32:09 -80.23, -44.75 90.33 0.51 20
9 02/28/2024 07:31:41 -80.16, -90.38 91.22 02/28/2024 07:32:21 -80.16, -90.42 91.23 1.19 40
10 02/28/2024 08:22:38 80.27, 78.33 88.95 02/28/2024 08:21:38 80.26, 78.17 88.92 3.08 60



Historial Predications of SNOs between NOAA-19 and TERRA
